Ypsilanti, MI

10:07 AM EST on December 16, 2017 (GMT -0500)
Willow Run

Weather History for KYIP - January, 2008

Change the Weather History Date:

Wednesday, January 2, 2008

  Actual Average Record
Temperature  
Mean Temperature 17 °F -  
Max Temperature 25 °F 32 °F 55 °F (2000)
Min Temperature 6 °F 20 °F 1 °F (2001)
Degree Days  
Heating Degree Days 48    
Moisture  
Dew Point 14 °F    
Average Humidity 80    
Maximum Humidity 92    
Minimum Humidity 63    
Precipitation  
Precipitation 0.00 in - - ()
Sea Level Pressure  
Sea Level Pressure 30.41 in    
Wind  
Wind Speed 7 mph (NNW)    
Max Wind Speed 10 mph    
Max Gust Speed -    
Visibility 10 miles    
Events Snow    
Averages and records for this station are not official NWS values.
T = Trace of Precipitation, MM = Missing Value Source: NWS Daily Summary

Daily Weather History Graph

Daily Weather History Graph

Search for Another Location

Airport or City:

Trip Planner

Search our weather history database for the weather conditions in past years. The results will help you decide how hot, cold, wet, or windy it might be!

Date:

Astronomy

Jan. 02, 2008 Rise Set
Actual Time 8:03 AM EST 5:13 PM EST
Civil Twilight 7:31 AM EST 5:44 PM EST
Nautical Twilight 6:56 AM EST 6:20 PM EST
Astronomical Twilight 6:22 AM EST 6:54 PM EST
Moon 2:50 AM EST (1/2) 12:51 PM EST (1/2)
Length of Visible Light 10h 13m
Length of Day
9h 10m
Waning Crescent, 28% of the Moon is Illuminated
Jan 2
Waning Crescent
Jan 8
New
Jan 15
First Quarter
Jan 22
Full
Jan 30
Last Quarter

Hourly Weather History & Observations

Time (EST) Temp. Windchill Dew Point Humidity Pressure Visibility Wind Dir Wind Speed Gust Speed Precip Events Conditions
12:53 AM 25.0 °F 17.1 °F 21.0 °F 85% 30.10 in 10.0 mi NNW 6.9 mph - N/A   Overcast
1:53 AM 21.0 °F 13.4 °F 19.0 °F 92% 30.13 in 10.0 mi NNW 5.8 mph - N/A   Partly Cloudy
2:53 AM 23.0 °F 13.1 °F 19.0 °F 85% 30.16 in 10.0 mi NNW 9.2 mph - N/A   Mostly Cloudy
3:53 AM 23.0 °F 13.1 °F 19.0 °F 85% 30.19 in 10.0 mi NNW 9.2 mph - N/A   Mostly Cloudy
4:53 AM 24.1 °F 16.0 °F 21.0 °F 88% 30.22 in 10.0 mi NNW 6.9 mph - N/A   Overcast
5:53 AM 24.1 °F 15.2 °F 19.9 °F 84% 30.25 in 7.0 mi NNW 8.1 mph - N/A   Overcast
6:15 AM 21.2 °F 12.6 °F 17.6 °F 86% 30.24 in 9.0 mi NNW 6.9 mph - N/A   Overcast
6:53 AM 19.9 °F 11.1 °F 17.1 °F 89% 30.29 in 10.0 mi NNW 6.9 mph - N/A   Overcast
7:30 AM 21.2 °F 11.7 °F 17.6 °F 86% 30.29 in 10.0 mi NW 8.1 mph - N/A   Overcast
7:53 AM 21.0 °F 12.4 °F 16.0 °F 81% 30.33 in 10.0 mi NNW 6.9 mph - N/A   Overcast
8:08 AM 19.4 °F 9.5 °F 15.8 °F 86% 30.31 in 10.0 mi NNW 8.1 mph - N/A   Overcast
8:19 AM 19.4 °F 9.5 °F 15.8 °F 86% 30.32 in 9.0 mi NNW 8.1 mph - N/A   Overcast
8:53 AM 19.0 °F 10.0 °F 15.1 °F 85% 30.36 in 5.0 mi NNW 6.9 mph - 0.00 in Snow Light Snow
9:53 AM 19.9 °F 9.3 °F 15.1 °F 81% 30.40 in 10.0 mi North 9.2 mph - 0.00 in   Mostly Cloudy
10:53 AM 21.0 °F 12.4 °F 15.1 °F 78% 30.44 in 10.0 mi NNW 6.9 mph - N/A   Overcast
11:53 AM 21.0 °F 9.9 °F 14.0 °F 74% 30.45 in 4.0 mi NNW 10.4 mph - 0.00 in Snow Light Snow
12:53 PM 21.0 °F 10.6 °F 12.0 °F 68% 30.47 in 10.0 mi North 9.2 mph - 0.00 in   Overcast
1:53 PM 21.9 °F 11.7 °F 12.0 °F 66% 30.49 in 10.0 mi North 9.2 mph - N/A   Overcast
2:46 PM 21.2 °F 12.6 °F 12.2 °F 68% 30.47 in 10.0 mi North 6.9 mph - N/A   Mostly Cloudy
2:53 PM 21.9 °F 13.4 °F 12.0 °F 66% 30.50 in 10.0 mi NNW 6.9 mph - N/A   Mostly Cloudy
3:42 PM 21.2 °F 11.7 °F 10.4 °F 63% 30.49 in 10.0 mi NNW 8.1 mph - N/A   Scattered Clouds
3:53 PM 21.0 °F 10.6 °F 10.9 °F 65% 30.53 in 10.0 mi NNW 9.2 mph - N/A   Partly Cloudy
4:53 PM 18.0 °F 11.1 °F 10.0 °F 71% 30.55 in 10.0 mi NNW 4.6 mph - N/A   Clear
5:53 PM 16.0 °F 8.8 °F 10.0 °F 77% 30.58 in 10.0 mi NW 4.6 mph - N/A   Clear
6:53 PM 12.0 °F 4.1 °F 9.0 °F 88% 30.60 in 10.0 mi NW 4.6 mph - N/A   Clear
7:53 PM 12.0 °F 4.1 °F 8.1 °F 84% 30.63 in 10.0 mi NW 4.6 mph - N/A   Overcast
8:53 PM 15.1 °F 7.7 °F 10.0 °F 80% 30.64 in 10.0 mi WNW 4.6 mph - N/A   Overcast
9:53 PM 12.0 °F 2.7 °F 8.1 °F 84% 30.64 in 10.0 mi WNW 5.8 mph - N/A   Scattered Clouds
10:53 PM 9.0 °F 0.6 °F 6.1 °F 88% 30.65 in 10.0 mi West 4.6 mph - N/A   Clear
11:53 PM 6.1 °F -6.8 °F 3.0 °F 87% 30.67 in 10.0 mi WSW 8.1 mph - N/A   Clear